Weather in Nam Dinh

Vietnam     20°25′31″N   106°10′29″E
temp.,
°C
wind,
m/s
gust,
m/s
humid.,
%
clouds,
%
prec.,
mm/h
press.,
hPa
HPBL,
m
15 april, thu
thu1501:00+24se4893100 0.0 1009345
04:00+23se2697100 0.0 1008201
07:00+25se3790100 0.4 1010490
10:00+27sse5880100 0.6 1011750
13:00+28sse677285 0.8 1009956
16:00+27se567792 0.1 1006656
19:00+25se4891100 0.1 1009344
22:00+24ese269682 0.0 1011189
16 april, fri
fri1601:00+24ese369666 0.2 1009225
04:00+23ese369788 0.1 1009180
07:00+25se3790100 0.6 1011425
10:00+27sse577598 0.4 1013860
13:00+28sse776789 0.6 10111080
16:00+28ese666920 0.1 1008945
19:00+24se3786100 0.1 1011247
22:00+24se2488100 0.0 1014101
17 april, sat
sat1701:00+24ese3589100 0.0 1012147
04:00+24ese2292100 0.2 101264
07:00+24e2393100 1.2 101485
10:00+25ene3384100 1.3 1016384
13:00+24e4588100 1.5 1013307
16:00+23e3590100 0.1 1012255
19:00+22e259280 0.1 1014172
22:00+22ene2596100 0.1 1016204
18 april, sun
sun1801:00+22e3694100 0.2 1014387
04:00+22ene1394100 0.4 1013226
07:00+22n2393100 0.6 1015277
10:00+22nnw2290100 0.1 1015264
13:00+22nnw2288100 0.2 1012383
16:00+22n2293100 0.5 1011204
19:00+21nne2396100 1.4 1012141
22:00+22ne1496100 0.1 1013213
19 april, mon
mon1901:00+22e479469 0.2 1011364
04:00+21ene259730 0.0 1011131
07:00+22ne2392100 0.2 1012181
10:00+24ene1286100 0.4 1013459
13:00+26e227687 0.7 1009822
16:00+26ese557648 0.4 1008812
19:00+23ese589328 0.5 1009374
22:00+22e489622 0.0 1011289